N1JFY Weather Reports


time (UTC)temp
F
wind
direction
speed
knots
gust
knots
rain 1hr
in
rain 24hr
in
rain mn
in
humidity
%
barometer
mb
20260506110034 49 360 0.0 6.1 0.00 0.08 0.01 86 1008.8
20260506104530 49 323 5.2 7.8 0.00 0.08 0.01 88 1008.7
20260506103032 49 360 2.6 6.1 0.01 0.08 0.01 88 1008.5
20260506101537 49 12 0.0 5.2 0.01 0.08 0.01 88 1008.4
20260506100031 50 360 3.5 8.7 0.01 0.08 0.01 86 1008.1
20260506094522 51 360 3.5 10.4 0.01 0.08 0.01 89 1008.9
20260506093019 51 360 0.0 0.0 0.00 0.07 0.00 93 1008.3
20260506091518 51 237 0.0 0.0 0.00 0.07 0.00 93 1008.4
20260506090014 51 199 0.0 0.0 0.00 0.07 0.00 92 1007.8
20260506084513 51 215 0.0 0.0 0.00 0.07 0.00 92 1007.5
20260506083012 51 213 0.0 0.0 0.00 0.07 0.00 91 1007.4
20260506081510 51 213 0.0 0.0 0.00 0.07 0.00 90 1007.7
20260506073003 52 221 4.3 7.0 0.00 0.07 0.00 88 1006.8
20260506071600 52 194 2.6 9.6 0.00 0.07 0.00 88 1006.6
20260506061555 53 192 3.5 7.0 0.00 0.07 0.00 89 1005.6
20260506044538 55 198 4.3 9.6 0.00 0.07 0.00 88 1005.3
20260506043036 55 205 4.3 9.6 0.00 0.07 0.00 90 1005.6
20260506041533 55 201 4.3 11.3 0.00 0.07 0.00 89 1005.3
20260506040037 55 225 1.7 6.1 0.00 0.07 0.00 90 1004.9
20260506034530 56 205 2.6 6.1 0.00 0.07 0.07 91 1004.6
20260506033033 56 218 0.0 6.1 0.00 0.07 0.07 91 1004.5
20260506031527 56 209 0.9 7.8 0.00 0.07 0.07 91 1004.4
20260506030028 56 183 3.5 9.6 0.01 0.07 0.07 91 1004.3
20260506024530 56 215 0.9 7.8 0.01 0.07 0.07 91 1004.2
20260506023029 56 205 2.6 7.0 0.02 0.07 0.07 91 1004.1
20260506021532 57 196 4.3 7.0 0.02 0.07 0.07 90 1003.9
20260506020029 57 204 2.6 8.7 0.03 0.06 0.06 89 1003.9
20260506014526 57 194 2.6 9.6 0.05 0.06 0.06 90 1004.3
20260506013025 57 180 3.5 8.7 0.05 0.05 0.05 89 1004.1
20260506011528 57 209 2.6 7.0 0.04 0.04 0.04 88 1004.3
20260506010042 58 215 3.5 9.6 0.03 0.03 0.03 87 1004.2
20260506004525 59 231 5.2 13.9 0.01 0.01 0.01 83 1004.3
20260506003023 60 218 7.8 13.9 0.00 0.00 0.00 79 1004.4
20260506001632 61 201 4.3 13.9 0.00 0.00 0.00 79 1004.2
20260506000021 60 194 0.9 6.1 0.00 0.00 0.00 80 1004.0
20260505234533 60 236 0.0 0.0 0.00 0.00 0.00 81 1004.1
20260505233029 60 245 0.0 0.9 0.00 0.00 0.00 80 1003.5
20260505231519 60 234 0.0 1.7 0.00 0.00 0.00 80 1003.2
20260505230019 60 259 2.6 8.7 0.00 0.00 0.00 80 1002.7
20260505224519 61 360 7.8 23.5 0.00 0.00 0.00 79 1002.8
20260505223017 65 360 18.2 26.1 0.00 0.00 0.00 67 1002.2
20260505221517 70 266 4.3 16.5 0.00 0.00 0.00 48 1001.1
20260505220016 70 207 8.7 19.1 0.00 0.00 0.00 47 1000.1
20260505214522 71 205 7.0 21.7 0.00 0.00 0.00 47 999.7
20260505213016 71 172 3.5 18.2 0.00 0.00 0.00 48 999.6
20260505211515 71 178 6.1 18.2 0.00 0.00 0.00 47 999.7
20260505210015 72 222 7.8 23.5 0.00 0.00 0.00 47 999.6
20260505204516 72 203 7.8 20.9 0.00 0.00 0.00 46 999.2
20260505203021 74 191 8.7 24.3 0.00 0.00 0.00 43 999.4
20260505201515 74 198 5.2 22.6 0.00 0.00 0.00 44 999.5
20260505200010 75 202 8.7 19.1 0.00 0.00 0.00 41 999.5
20260505194507 75 190 12.2 26.1 0.00 0.00 0.00 42 999.6
20260505193010 74 192 7.8 22.6 0.00 0.00 0.00 42 999.7
20260505191508 74 218 10.4 23.5 0.00 0.00 0.00 43 999.8
20260505190004 74 173 9.6 28.7 0.00 0.00 0.00 43 999.9
20260505184503 74 217 7.8 23.5 0.00 0.01 0.00 42 1000.3
20260505183059 74 184 10.4 20.9 0.00 0.01 0.00 44 1000.5
20260505181556 74 155 9.6 20.9 0.00 0.01 0.00 41 1001.1
20260505180107 73 236 10.4 23.5 0.00 0.01 0.00 44 1001.2
20260505174603 73 227 9.6 21.7 0.00 0.01 0.00 42 1001.6
20260505173052 73 185 8.7 22.6 0.00 0.01 0.00 43 1001.5
20260505171550 74 238 7.8 20.0 0.00 0.01 0.00 43 1001.8
20260505170048 73 203 12.2 25.2 0.00 0.01 0.00 42 1001.8
20260505164548 71 165 7.0 22.6 0.00 0.01 0.00 45 1002.2
20260505163043 70 150 7.8 16.5 0.00 0.01 0.00 46 1002.8
20260505161539 69 196 7.8 20.9 0.00 0.01 0.00 48 1003.0
20260505153033 66 175 4.3 16.5 0.00 0.01 0.00 50 1003.7
20260505151533 67 159 2.6 20.9 0.00 0.01 0.00 53 1003.8
20260505124558 54 221 10.4 15.6 0.00 0.01 0.00 68 1004.8
20260505123101 53 197 5.2 14.8 0.00 0.01 0.00 73 1004.7
20260505121548 51 194 7.0 14.8 0.00 0.01 0.00 75 1004.8
20260505120046 50 203 6.1 13.9 0.00 0.01 0.00 77 1005.1
20260505114543 49 202 4.3 14.8 0.00 0.01 0.00 79 1005.4
20260505113040 48 217 7.8 16.5 0.00 0.01 0.00 80 1005.2
20260505111538 46 233 6.1 12.2 0.00 0.01 0.00 84 1005.1